Weather History for KIOW - September, 2013

Change the Weather History Date:

Monday, September 2, 2013

  Actual Average Record
Temperature  
Mean Temperature 68 °F 69 °F  
Max Temperature 78 °F 80 °F 98 °F (1984)
Min Temperature 58 °F 59 °F 43 °F (1955)
Degree Days  
Heating Degree Days 0 1  
Month to date heating degree days 0 2  
Since 1 July heating degree days 9 10  
Cooling Degree Days 3 5  
Month to date cooling degree days 16 10  
Year to date cooling degree days 884 832  
Growing Degree Days 18 (Base 50)    
Moisture  
Dew Point 55 °F    
Average Humidity 65    
Maximum Humidity 90    
Minimum Humidity 40    
Precipitation  
Precipitation 0.00 in 0.15 in 0.67 in (1973)
Month to date precipitation 0.00 0.32  
Year to date precipitation 28.26 26.47  
Sea Level Pressure  
Sea Level Pressure 29.99 in    
Wind  
Wind Speed 9 mph (North)    
Max Wind Speed 16 mph    
Max Gust Speed 23 mph    
Visibility 10 miles    
Events      
T = Trace of Precipitation, MM = Missing Value Source: NWS Daily Summary

Daily Weather History Graph

Daily Weather History Graph

Search for Another Location

Airport or City:

Trip Planner

Search our weather history database for the weather conditions in past years. The results will help you decide how hot, cold, wet, or windy it might be!

Date:

Astronomy

Sep. 02, 2013 Rise Set
Actual Time 6:33 AM CDT 7:37 PM CDT
Civil Twilight 6:04 AM CDT 8:05 PM CDT
Nautical Twilight 5:31 AM CDT 8:39 PM CDT
Astronomical Twilight 4:55 AM CDT 9:14 PM CDT
Moon 3:49 AM CDT (9/2) 5:51 PM CDT (9/2)
Length of Visible Light 14h 00m
Length of Day
13h 03m
Waning Crescent, 8% of the Moon is Illuminated
Sep 2
Waning Crescent
Sep 5
New
Sep 12
First Quarter
Sep 19
Full
Sep 26
Last Quarter

Hourly Weather History & Observations

Time (CDT) Temp. Dew Point Humidity Pressure Visibility Wind Dir Wind Speed Gust Speed Precip Events Conditions
12:52 AM 68.0 °F 60.1 °F 76% 29.92 in 10.0 mi NNW 6.9 mph - N/A   Clear
1:52 AM 66.9 °F 60.1 °F 79% 29.92 in 10.0 mi NW 6.9 mph - N/A   Clear
2:52 AM 64.9 °F 59.0 °F 81% 29.92 in 10.0 mi NNW 9.2 mph - N/A   Clear
3:52 AM 64.0 °F 59.0 °F 84% 29.93 in 10.0 mi NNW 10.4 mph - N/A   Clear
4:52 AM 63.0 °F 57.9 °F 84% 29.94 in 10.0 mi NNW 10.4 mph - N/A   Clear
5:52 AM 62.1 °F 57.9 °F 86% 29.96 in 10.0 mi NW 10.4 mph - N/A   Clear
6:52 AM 61.0 °F 57.9 °F 90% 29.99 in 10.0 mi NW 10.4 mph - N/A   Clear
7:52 AM 63.0 °F 57.9 °F 84% 29.99 in 10.0 mi NNW 8.1 mph - N/A   Clear
8:52 AM 68.0 °F 57.0 °F 68% 30.01 in 10.0 mi North 10.4 mph - N/A   Clear
9:52 AM 71.1 °F 54.0 °F 55% 30.02 in 10.0 mi North 11.5 mph - N/A   Clear
10:52 AM 71.1 °F 54.0 °F 55% 30.02 in 10.0 mi North 9.2 mph - N/A   Partly Cloudy
11:52 AM 73.9 °F 52.0 °F 46% 30.02 in 10.0 mi North 11.5 mph - N/A   Clear
12:52 PM 73.9 °F 53.1 °F 48% 30.01 in 10.0 mi NNW 10.4 mph 18.4 mph N/A   Clear
1:52 PM 75.0 °F 52.0 °F 44% 30.01 in 10.0 mi North 6.9 mph - N/A   Clear
2:52 PM 77.0 °F 53.1 °F 43% 30.00 in 10.0 mi North 10.4 mph - N/A   Clear
3:52 PM 77.0 °F 52.0 °F 42% 29.99 in 10.0 mi North 10.4 mph - N/A   Clear
4:52 PM 75.9 °F 53.1 °F 45% 29.98 in 10.0 mi NNE 8.1 mph - N/A   Clear
5:52 PM 75.9 °F 53.1 °F 45% 29.99 in 10.0 mi North 10.4 mph - N/A   Clear
6:52 PM 73.0 °F 54.0 °F 51% 29.99 in 10.0 mi North 10.4 mph - N/A   Clear
7:52 PM 69.1 °F 53.1 °F 57% 30.00 in 10.0 mi North 8.1 mph - N/A   Clear
8:52 PM 66.0 °F 55.0 °F 68% 30.01 in 10.0 mi North 11.5 mph - N/A   Clear
9:52 PM 62.1 °F 54.0 °F 75% 30.04 in 10.0 mi North 9.2 mph - N/A   Clear
10:52 PM 60.1 °F 53.1 °F 78% 30.04 in 10.0 mi NNE 8.1 mph - N/A   Clear
11:52 PM 59.0 °F 53.1 °F 81% 30.04 in 10.0 mi North 4.6 mph - N/A   Clear